This is the latest recevied weather packets stored in our database for station/object N4MGC. If no packets are shown the sender has not sent any weather packets the latest 10 day(s).
| Time | Temp. | Humidity | Pressure | Rain* | Wind** | Luminosity | Snow |
|---|---|---|---|---|---|---|---|
| 1777543622 | 15° C | 99% | 1013 hPa | 0 mm | - | 0 W/m² | - |
| 1777543014 | 15° C | 99% | 1011.9 hPa | 0 mm | - | 0 W/m² | - |
| 1777542407 | 15° C | 99% | 1012.8 hPa | 6.1 mm | - | 0 W/m² | - |
| 1777541800 | 15° C | 99% | 1012.4 hPa | 1.27 mm | - | 0 W/m² | - |
| 1777541497 | 15° C | 99% | 1012.5 hPa | 1.78 mm | - | 0 W/m² | - |
| 1777541194 | 15° C | 99% | 1012.4 hPa | 3.56 mm | - | 0 W/m² | - |
| 1777540890 | 15° C | 99% | 1012.7 hPa | 8.89 mm | - | 0 W/m² | - |
| 1777540588 | 15° C | 99% | 1012.5 hPa | 10.16 mm | - | 0 W/m² | - |
| 1777540284 | 15° C | 99% | 1012.5 hPa | 8.89 mm | - | 0 W/m² | - |
| 1777539980 | 15° C | 99% | 1011.8 hPa | 6.1 mm | - | 0 W/m² | - |
| 1777539671 | 15° C | 99% | 1011.7 hPa | 4.83 mm | - | 0 W/m² | - |
| 1777539367 | 15° C | 99% | 1011.7 hPa | 7.87 mm | - | 0 W/m² | - |
| 1777539064 | 15° C | 99% | 1011.7 hPa | 7.87 mm | - | 0 W/m² | - |
| 1777538760 | 15° C | 99% | 1012.1 hPa | 0 mm | - | 0 W/m² | - |
| 1777538455 | 15° C | 99% | 1011.9 hPa | 0 mm | - | 0 W/m² | - |
| 1777538151 | 15° C | 99% | 1012.1 hPa | 0 mm | - | 0 W/m² | - |
| 1777537847 | 15° C | 99% | 1012.1 hPa | 0 mm | - | 0 W/m² | - |
| 1777537544 | 15° C | 99% | 1012.4 hPa | 1.27 mm | - | 0 W/m² | - |
| 1777537239 | 15° C | 99% | 1012.2 hPa | 1.27 mm | - | 0 W/m² | - |
| 1777536935 | 15° C | 99% | 1012.5 hPa | 0 mm | - | 0 W/m² | - |
| 1777536633 | 15° C | 99% | 1012.1 hPa | 0 mm | - | 0 W/m² | - |
| 1777536330 | 15° C | 99% | 1012.3 hPa | 1.78 mm | - | 0 W/m² | - |
| 1777535721 | 15° C | 99% | 1012.4 hPa | 0 mm | - | 0 W/m² | - |
| 1777535116 | 15° C | 99% | 1012.4 hPa | 0 mm | - | 0 W/m² | - |
| 1777534812 | 15° C | 99% | 1012 hPa | 0 mm | - | 0 W/m² | - |
* Rain latest hour (hover to see other rain measurements)
** Current wind speed in m/s (hover to see current wind gust speed)